Temp
62 60 60 59 59 59 59 59 58 59 60 60 60 59 59 61 60 59 59 60 61 61 62 61 61 61 62 62 61 60 60 61 60 60 57 57 59 58 59 57 57 57 56 54 56 57 52 53 53 57 57 56 57 57 58 58 57 55 54 54 55 54 52
60 60 58 59 59 58 58 57 58 59 59 59 59 59 59 60 61 60 59 59 60 61 63 61 61 62 62 61 60 60 60 59 59 59 59 58 58 58 57 56 57 56 56 56 55 54 51 51 51 52 53 55 56 55 56 55 55 55 55 54 56 54 54
58 57 57 58 57 57 57 56 57 57 57 57 58 58 58 59 59 59 59 59 59 61 62 61 61 60 60 61 61 61 59 59 58 60 60 59 59 58 59 58 56 55 57 56 54 55 56 52 53 52 52 54 53 53 55 54 55 54 54 53 52 52 51
57 58 57 57 56 56 57 56 57 57 57 57 57 57 57 57 57 58 58 58 58 61 61 60 61 61 61 60 60 59 59 59 58 58 57 57 58 58 58 59 60 61 59 56 55 55 54 51 52 51 51 51 52 52 52 53 54 54 54 52 51 50 50
59 59 59 58 57 57 57 56 56 57 56 58 57 57 57 57 57 57 57 57 59 58 58 59 60 61 61 60 59 59 59 58 58 59 58 57 57 58 58 58 59 58 56 58 58 57 57 56 57 52 51 51 53 50 54 53 54 53 52 52 52 51 50
59 59 59 58 57 58 57 57 57 57 57 59 57 57 57 57 58 58 57 58 58 58 58 58 58 59 60 60 60 60 59 59 59 58 57 58 58 58 58 56 57 57 57 58 58 57 57 57 56 53 51 50 47 49 53 51 52 53 52 53 53 52 52
58 59 58 59 57 58 58 58 58 58 58 57 57 57 57 58 57 57 57 57 57 57 58 58 58 58 59 59 59 59 59 59 58 57 57 56 57 56 58 57 56 56 55 58 57 57 57 56 54 56 51 48 50 53 51 50 53 52 55 54 54 53 52
58 57 57 58 58 58 57 58 57 56 58 56 57 57 57 57 56 56 57 57 57 57 58 58 60 58 58 59 58 57 56 56 56 56 55 57 58 56 55 57 57 56 56 56 57 58 60 59 57 55 55 51 47 49 50 49 49 48 50 52 53 55 52
59 58 58 57 57 58 58 58 57 56 58 57 56 56 58 57 56 56 56 55 56 57 57 57 57 58 57 58 57 56 56 57 56 55 54 56 56 56 56 54 57 56 55 56 58 58 59 59 58 56 57 56 52 46 47 49 49 49 52 52 54 53 53
58 58 58 56 56 56 57 57 57 57 57 57 58 57 55 55 55 55 55 55 56 56 56 56 56 56 56 57 56 54 54 54 55 54 53 55 53 54 53 54 56 55 55 56 57 58 57 56 57 56 59 58 55 51 45 45 46 45 53 50 52 54 54
58 57 57 56 56 57 56 57 57 58 57 57 57 57 55 55 56 57 54 54 54 55 55 55 56 55 56 55 54 53 53 53 54 53 53 54 54 54 53 53 53 53 53 56 57 57 57 56 55 56 54 54 57 55 48 48 48 44 50 50 49 54 52
58 57 57 57 57 58 57 56 56 56 55 55 57 55 54 54 54 53 54 53 54 54 54 54 54 55 55 54 54 53 53 53 55 53 52 54 54 55 52 52 52 52 52 54 56 57 57 57 55 54 52 54 55 54 54 49 47 49 49 54 52 51 53
59 58 57 58 57 57 57 56 55 55 55 55 54 54 54 54 53 53 53 54 53 53 53 54 54 54 54 53 53 55 53 54 55 54 52 53 56 53 54 54 51 52 53 54 55 56 55 55 56 54 54 54 49 50 52 51 51 53 49 51 52 52 53
59 58 57 58 58 57 56 56 55 54 54 54 53 54 54 53 52 53 53 54 53 53 53 53 54 53 53 53 52 53 52 54 55 52 53 53 52 53 54 54 52 52 53 55 54 55 55 55 54 55 54 52 51 51 54 48 49 49 53 46 48 54 53
58 58 58 57 57 56 56 55 54 54 54 54 54 53 53 53 52 53 53 53 53 52 53 52 52 53 54 53 52 54 54 53 53 51 52 52 51 54 52 54 53 52 52 54 54 56 55 54 55 55 54 55 53 53 51 48 47 48 52 52 52 51 52
58 58 58 57 57 57 56 55 55 55 54 54 54 54 53 52 52 51 52 52 52 52 52 52 52 52 52 53 52 51 52 52 52 52 52 51 52 51 52 52 52 52 54 53 52 52 52 54 55 57 55 55 55 54 53 52 49 50 51 51 50 51 50
58 58 58 57 57 55 55 55 55 55 54 53 54 54 52 52 52 51 52 52 52 52 52 52 51 51 52 51 52 52 50 50 51 51 52 51 51 52 51 52 51 51 52 53 51 52 52 52 54 54 54 53 55 55 54 52 56 51 50 53 50 55 53
56 57 56 56 56 55 55 55 55 54 52 53 53 53 54 52 52 52 53 52 52 52 51 51 51 51 52 51 51 51 51 50 51 51 51 51 55 51 52 53 51 50 51 53 50 52 53 53 54 54 54 54 54 55 53 54 52 48 53 53 53 50 49
57 57 57 57 56 55 55 54 54 54 53 53 52 53 54 53 53 53 52 51 52 52 51 51 51 51 51 51 51 51 51 51 51 51 51 51 52 50 52 51 51 50 52 54 52 51 51 52 52 52 52 52 52 51 51 50 50 51 54 54 52 52 49
56 57 58 57 56 55 55 54 54 54 54 53 53 53 53 53 53 53 52 52 52 52 52 52 51 51 51 51 51 52 52 51 52 51 51 52 51 51 51 52 50 50 51 51 52 51 51 50 53 51 52 52 52 52 51 51 50 51 52 51 48 49 50
57 56 55 55 55 55 56 55 54 53 54 54 53 52 53 54 53 53 52 52 52 53 53 53 52 51 52 51 52 52 51 51 52 51 52 52 51 51 51 52 51 51 51 52 53 51 52 53 50 52 50 51 51 52 52 50 49 50 49 49 50 50 46
55 55 55 55 56 56 56 54 54 54 55 55 55 54 53 54 53 53 53 53 53 53 53 54 54 52 52 52 52 52 51 52 52 52 52 52 52 51 51 51 51 50 53 56 54 54 54 55 55 54 50 49 50 52 51 50 51 49 49 50 49 46 47
55 55 55 55 55 55 55 54 54 55 56 54 54 54 52 53 53 53 54 53 52 53 54 54 56 54 54 54 51 54 53 52 52 52 53 52 52 51 51 51 53 58 57 56 53 50 49 51 55 57 55 51 52 51 51 50 49 50 50 49 49 48 49
56 55 55 55 55 56 56 55 54 54 53 53 53 53 54 54 53 52 53 53 53 54 55 56 53 48 48 51 54 52 53 52 50 51 51 52 53 54 52 51 50 55 56 56 53 48 47 47 47 50 51 52 54 55 51 50 50 48 49 51 48 46 49
54 54 55 54 54 54 54 55 55 55 55 54 53 53 53 51 51 52 52 52 51 53 54 54 50 47 46 47 51 56 54 54 53 51 51 51 53 52 53 53 52 52 53 52 52 50 48 47 46 47 47 46 48 50 51 54 52 48 47 49 46 48 47
53 53 52 52 52 52 52 52 52 53 54 54 53 54 52 52 51 50 50 52 52 50 50 49 45 45 45 45 45 50 54 54 55 53 52 53 53 53 53 54 54 54 55 57 56 50 50 48 46 45 46 48 47 45 45 45 48 53 51 51 51 49 48
52 52 51 51 50 50 50 50 49 49 51 52 52 52 52 51 51 51 50 51 52 50 50 46 42 42 44 44 43 45 52 53 54 54 54 54 54 54 54 54 54 54 52 52 52 50 50 46 45 46 46 46 47 47 45 45 44 44 49 54 52 52 51
50 51 51 50 49 48 48 49 49 48 48 49 49 49 50 50 50 50 50 49 50 51 51 45 40 39 41 44 44 44 48 51 52 52 53 53 54 54 54 55 54 55 54 52 53 52 49 47 46 45 46 49 47 45 45 45 44 44 46 48 52 55 54
49 49 49 49 48 48 47 47 47 47 47 46 47 47 48 48 48 49 49 49 47 50 51 46 42 40 40 41 43 47 48 49 51 52 52 52 53 53 53 53 53 53 53 53 50 46 48 49 50 49 48 47 46 45 44 44 41 41 42 45 48 51 51
47 46 46 46 45 45 46 46 46 46 46 45 45 45 45 45 46 46 48 48 49 49 50 48 44 43 41 40 44 47 47 48 48 50 52 52 52 53 53 53 53 52 52 52 47 43 44 47 51 51 51 49 46 46 45 43 41 40 40 42 43 44 43
47 46 45 45 46 46 46 46 46 45 44 44 45 44 44 44 44 45 45 46 47 47 48 48 45 44 43 42 43 49 50 49 49 50 51 52 51 51 53 53 55 53 52 51 46 42 42 47 50 51 49 48 46 44 43 42 44 42 41 41 40 40 40
47 46 45 44 44 44 45 45 44 44 44 44 44 43 45 43 43 43 44 44 49 47 46 47 45 43 43 43 44 47 49 48 48 49 50 51 50 50 51 51 51 51 51 49 45 43 42 46 52 51 50 49 47 46 45 42 42 43 43 45 42 43 43
47 47 46 46 46 45 45 44 43 43 43 43 42 42 42 43 42 42 42 43 43 44 44 45 46 43 43 43 43 46 48 48 49 49 50 51 52 52 49 50 49 44 44 45 44 43 42 42 51 52 49 49 48 48 45 43 44 45 46 46 44 43 42
45 45 45 45 46 46 45 44 44 43 42 43 42 42 41 42 42 41 41 41 41 42 44 45 45 43 43 43 42 42 46 48 49 50 49 49 49 50 50 49 48 46 43 43 43 43 43 42 44 50 50 50 50 48 44 45 44 44 44 43 42 40 41
45 45 44 44 44 43 43 44 45 44 43 42 41 41 40 41 41 41 41 41 41 41 44 46 43 43 42 42 42 41 43 46 48 49 50 50 49 48 49 49 49 47 44 42 42 42 42 42 41 46 49 45 42 41 46 46 45 44 43 42 40 39 40
44 45 43 43 43 42 42 43 43 43 42 42 41 40 40 40 39 39 39 40 40 40 40 42 43 42 42 42 42 41 39 41 40 45 47 49 50 51 49 48 48 46 43 42 41 41 41 41 41 44 43 42 41 41 42 44 43 44 43 42 41 40 39
42 41 42 42 42 41 41 41 42 42 41 41 40 39 39 39 38 38 38 38 39 40 40 39 41 42 41 41 41 40 39 38 38 43 46 48 50 51 50 48 47 44 42 41 41 41 41 40 43 41 42 41 40 40 44 43 44 44 42 41 40 39 39
MSLP
1017.33 1017.41 1017.49 1017.61 1017.65 1017.69 1017.81 1017.93 1017.97 1018.01 1018.05 1018.13 1018.21 1018.33 1018.37 1018.33 1018.33 1018.37 1018.41 1018.45 1018.57 1018.69 1018.81 1018.97 1019.09 1019.21 1019.33 1019.49 1019.57 1019.65 1019.81 1019.93 1020.05 1020.37 1020.85 1020.89 1020.93 1021.25 1021.37 1021.21 1021.25 1021.37 1021.33 1021.29 1021.61 1022.17 1023.05 1023.89 1024.13 1023.97 1023.97 1024.01 1024.09 1024.33 1024.33 1024.33 1024.37 1024.37 1024.33 1024.29 1024.21 1024.21 1024.21
1017.17 1017.37 1017.53 1017.65 1017.81 1017.89 1018.01 1018.05 1018.05 1018.09 1018.13 1018.17 1018.25 1018.33 1018.37 1018.37 1018.33 1018.33 1018.41 1018.49 1018.57 1018.69 1018.77 1019.01 1019.09 1019.21 1019.29 1019.45 1019.65 1019.73 1019.85 1020.01 1020.05 1020.21 1020.45 1020.77 1020.81 1020.97 1021.25 1021.49 1021.37 1021.49 1021.53 1021.73 1022.05 1022.17 1022.73 1023.61 1024.21 1024.13 1024.49 1024.41 1024.37 1024.61 1024.69 1024.65 1024.61 1024.57 1024.45 1024.41 1024.37 1024.37 1024.37
1017.29 1017.53 1017.61 1017.81 1017.93 1018.01 1018.09 1018.17 1018.21 1018.21 1018.25 1018.25 1018.25 1018.29 1018.37 1018.41 1018.37 1018.37 1018.37 1018.45 1018.57 1018.69 1018.73 1018.89 1019.09 1019.21 1019.33 1019.37 1019.45 1019.57 1019.77 1020.01 1020.17 1020.21 1020.33 1020.53 1020.65 1020.77 1020.85 1021.05 1021.37 1021.77 1021.77 1022.01 1022.17 1022.29 1022.65 1022.85 1023.45 1024.01 1024.21 1024.41 1024.73 1024.89 1024.77 1024.81 1024.81 1024.73 1024.65 1024.61 1024.61 1024.65 1024.65
1017.37 1017.53 1017.81 1017.97 1018.09 1018.17 1018.21 1018.29 1018.29 1018.33 1018.37 1018.37 1018.33 1018.29 1018.33 1018.37 1018.37 1018.41 1018.41 1018.41 1018.53 1018.65 1018.73 1018.85 1019.01 1019.13 1019.21 1019.29 1019.49 1019.69 1019.77 1019.89 1020.09 1020.25 1020.37 1020.53 1020.69 1020.77 1020.89 1020.89 1021.05 1021.09 1021.25 1021.65 1021.97 1022.09 1022.25 1022.89 1023.53 1023.97 1024.29 1024.41 1024.61 1024.81 1024.93 1024.89 1024.89 1024.85 1024.85 1024.89 1024.89 1024.93 1024.93
1017.33 1017.57 1017.73 1017.89 1018.05 1018.13 1018.21 1018.33 1018.45 1018.45 1018.49 1018.45 1018.37 1018.29 1018.25 1018.29 1018.33 1018.37 1018.41 1018.45 1018.53 1018.61 1018.69 1018.73 1018.81 1018.93 1019.09 1019.29 1019.49 1019.69 1019.81 1019.93 1020.09 1020.25 1020.41 1020.61 1020.77 1020.81 1020.85 1020.93 1020.93 1021.01 1021.09 1021.25 1021.57 1021.69 1021.93 1022.41 1022.69 1023.77 1024.21 1024.49 1024.69 1024.89 1025.05 1024.93 1024.89 1024.93 1025.01 1025.09 1025.13 1025.17 1025.17
1017.33 1017.49 1017.69 1017.89 1018.05 1018.17 1018.29 1018.45 1018.53 1018.49 1018.53 1018.57 1018.61 1018.53 1018.53 1018.45 1018.41 1018.37 1018.45 1018.45 1018.53 1018.57 1018.61 1018.69 1018.81 1018.93 1019.09 1019.25 1019.45 1019.57 1019.73 1019.85 1020.01 1020.21 1020.37 1020.45 1020.57 1020.69 1020.77 1021.01 1020.97 1021.09 1021.13 1021.25 1021.41 1021.73 1022.01 1022.25 1022.77 1023.73 1024.25 1024.21 1024.45 1025.09 1025.09 1025.01 1025.01 1025.05 1025.09 1025.21 1025.25 1025.29 1025.25
1017.29 1017.49 1017.69 1017.89 1018.13 1018.21 1018.33 1018.41 1018.41 1018.41 1018.49 1018.53 1018.65 1018.65 1018.65 1018.61 1018.53 1018.49 1018.49 1018.53 1018.53 1018.57 1018.65 1018.73 1018.85 1018.93 1019.05 1019.21 1019.37 1019.53 1019.61 1019.73 1019.89 1020.09 1020.25 1020.45 1020.57 1020.61 1020.73 1020.97 1021.05 1021.09 1021.25 1021.29 1021.45 1021.69 1022.13 1022.57 1023.01 1023.25 1023.89 1024.45 1024.73 1025.01 1025.05 1025.01 1025.13 1025.13 1025.17 1025.17 1025.33 1025.33 1025.33
1017.25 1017.49 1017.65 1017.77 1018.01 1018.21 1018.33 1018.37 1018.45 1018.45 1018.41 1018.61 1018.65 1018.77 1018.77 1018.69 1018.61 1018.57 1018.57 1018.57 1018.65 1018.65 1018.69 1018.81 1018.93 1018.97 1019.09 1019.21 1019.37 1019.49 1019.65 1019.81 1019.89 1020.05 1020.25 1020.33 1020.49 1020.61 1020.73 1020.81 1021.01 1021.13 1021.33 1021.49 1021.49 1021.69 1021.85 1022.09 1022.49 1022.97 1023.37 1024.49 1025.05 1025.17 1025.13 1025.13 1025.21 1025.13 1025.17 1025.21 1025.25 1025.25 1025.33
1017.25 1017.49 1017.69 1017.81 1017.97 1018.05 1018.25 1018.29 1018.49 1018.57 1018.53 1018.61 1018.77 1018.85 1018.93 1018.81 1018.73 1018.73 1018.77 1018.77 1018.81 1018.81 1018.85 1018.89 1018.97 1019.09 1019.13 1019.21 1019.37 1019.45 1019.57 1019.81 1019.89 1020.05 1020.17 1020.25 1020.33 1020.45 1020.57 1020.77 1020.93 1021.09 1021.29 1021.41 1021.49 1021.65 1021.81 1021.97 1022.17 1022.53 1022.77 1023.29 1024.17 1025.25 1025.17 1025.25 1025.29 1025.17 1025.21 1025.17 1025.17 1025.17 1025.21
1017.21 1017.33 1017.53 1017.77 1017.93 1018.13 1018.21 1018.37 1018.45 1018.65 1018.69 1018.69 1018.77 1018.89 1018.97 1019.05 1018.97 1018.93 1018.97 1019.05 1019.05 1019.01 1019.05 1019.05 1019.13 1019.21 1019.33 1019.41 1019.53 1019.65 1019.69 1019.93 1019.89 1019.97 1020.13 1020.21 1020.41 1020.49 1020.53 1020.61 1020.65 1020.93 1021.13 1021.29 1021.45 1021.65 1021.85 1022.05 1022.09 1022.29 1022.33 1022.73 1023.29 1024.13 1025.01 1025.17 1025.21 1025.13 1025.09 1025.05 1025.05 1024.97 1025.09
1017.13 1017.41 1017.61 1017.81 1018.01 1018.13 1018.37 1018.49 1018.61 1018.73 1018.81 1018.85 1018.89 1019.01 1019.05 1019.05 1019.09 1019.13 1019.17 1019.29 1019.33 1019.25 1019.25 1019.29 1019.25 1019.37 1019.45 1019.61 1019.73 1019.85 1019.97 1019.97 1020.01 1020.25 1020.33 1020.29 1020.41 1020.45 1020.57 1020.69 1020.77 1020.85 1021.17 1021.29 1021.37 1021.61 1021.77 1021.93 1022.17 1022.37 1022.57 1022.73 1022.77 1023.25 1023.93 1024.41 1024.77 1024.97 1024.73 1024.93 1024.93 1024.73 1025.05
1017.29 1017.53 1017.77 1017.93 1018.05 1018.17 1018.41 1018.57 1018.69 1018.85 1018.97 1019.01 1019.01 1019.09 1019.13 1019.17 1019.25 1019.37 1019.33 1019.41 1019.45 1019.45 1019.45 1019.45 1019.49 1019.53 1019.53 1019.69 1019.81 1019.93 1020.05 1020.01 1020.05 1020.25 1020.41 1020.41 1020.45 1020.45 1020.61 1020.77 1020.89 1020.93 1021.17 1021.33 1021.49 1021.65 1021.77 1021.93 1022.13 1022.41 1022.61 1022.73 1023.05 1023.01 1023.21 1023.89 1024.53 1024.69 1024.69 1024.53 1024.57 1024.65 1024.61
1017.25 1017.45 1017.73 1017.89 1018.13 1018.29 1018.45 1018.61 1018.77 1018.89 1019.05 1019.17 1019.17 1019.21 1019.25 1019.29 1019.33 1019.41 1019.53 1019.53 1019.61 1019.61 1019.61 1019.65 1019.61 1019.57 1019.65 1019.77 1019.85 1019.97 1020.17 1020.09 1020.09 1020.29 1020.49 1020.57 1020.61 1020.77 1020.77 1020.81 1020.97 1021.01 1021.09 1021.29 1021.49 1021.61 1021.81 1021.93 1022.09 1022.33 1022.49 1022.73 1023.01 1023.29 1023.37 1023.45 1023.73 1023.97 1024.53 1024.37 1024.25 1024.29 1024.41
1017.29 1017.53 1017.69 1017.85 1018.05 1018.29 1018.45 1018.65 1018.77 1018.93 1019.13 1019.21 1019.29 1019.33 1019.33 1019.41 1019.41 1019.49 1019.61 1019.61 1019.65 1019.69 1019.73 1019.77 1019.81 1019.73 1019.73 1019.85 1019.97 1020.01 1020.17 1020.13 1020.17 1020.45 1020.53 1020.73 1020.85 1020.81 1020.65 1020.69 1020.85 1021.01 1021.05 1021.13 1021.37 1021.61 1021.81 1021.93 1022.17 1022.33 1022.57 1022.73 1022.97 1023.25 1023.33 1023.53 1023.77 1024.21 1024.37 1024.65 1024.45 1024.13 1024.33
1017.33 1017.45 1017.61 1017.89 1018.01 1018.25 1018.41 1018.61 1018.77 1018.93 1019.01 1019.33 1019.41 1019.37 1019.53 1019.61 1019.61 1019.61 1019.65 1019.77 1019.81 1019.85 1019.89 1019.93 1020.01 1019.89 1019.89 1020.01 1020.09 1020.13 1020.21 1020.25 1020.33 1020.45 1020.49 1020.57 1020.69 1020.69 1020.73 1020.69 1020.89 1021.05 1021.17 1021.21 1021.37 1021.49 1021.65 1021.93 1022.17 1022.45 1022.61 1022.65 1022.85 1023.09 1023.17 1023.21 1023.81 1023.89 1024.21 1024.33 1024.21 1024.41 1024.45
1017.29 1017.45 1017.61 1017.89 1018.05 1018.21 1018.41 1018.65 1018.81 1018.85 1019.05 1019.25 1019.49 1019.53 1019.53 1019.69 1019.77 1019.77 1019.85 1019.93 1019.97 1020.01 1020.05 1020.09 1020.21 1020.09 1020.09 1020.09 1020.21 1020.33 1020.37 1020.37 1020.41 1020.53 1020.53 1020.65 1020.73 1020.73 1020.73 1020.81 1020.93 1021.09 1021.21 1021.25 1021.45 1021.57 1021.77 1021.85 1022.13 1022.21 1022.41 1022.57 1022.65 1022.89 1023.01 1022.89 1023.29 1023.81 1024.01 1024.09 1024.21 1024.21 1024.29
1017.37 1017.53 1017.69 1017.93 1018.05 1018.25 1018.45 1018.65 1018.81 1018.89 1019.05 1019.25 1019.33 1019.61 1019.73 1019.77 1019.81 1019.89 1019.97 1020.09 1020.13 1020.09 1020.17 1020.25 1020.29 1020.29 1020.25 1020.25 1020.33 1020.41 1020.53 1020.53 1020.57 1020.57 1020.61 1020.73 1020.81 1020.81 1020.81 1020.93 1021.13 1021.17 1021.21 1021.33 1021.53 1021.65 1021.77 1021.85 1021.97 1022.21 1022.37 1022.49 1022.49 1022.65 1022.69 1022.81 1022.73 1023.21 1023.85 1024.01 1024.17 1024.01 1024.13
1017.85 1017.77 1017.97 1018.09 1018.21 1018.37 1018.49 1018.69 1018.89 1018.97 1019.13 1019.29 1019.45 1019.53 1019.65 1019.89 1019.89 1019.97 1020.01 1020.09 1020.17 1020.21 1020.25 1020.29 1020.29 1020.37 1020.45 1020.41 1020.41 1020.45 1020.53 1020.65 1020.73 1020.77 1020.81 1020.81 1020.89 1020.89 1020.97 1020.93 1021.21 1021.33 1021.29 1021.41 1021.65 1021.73 1021.89 1021.93 1022.01 1022.09 1022.25 1022.41 1022.49 1022.57 1022.73 1022.81 1022.97 1023.09 1023.49 1023.73 1023.81 1024.05 1024.17
1018.09 1018.05 1017.93 1018.05 1018.21 1018.41 1018.57 1018.77 1018.97 1019.17 1019.21 1019.33 1019.49 1019.53 1019.57 1019.69 1019.85 1019.93 1020.13 1020.21 1020.21 1020.25 1020.37 1020.41 1020.37 1020.41 1020.49 1020.57 1020.57 1020.57 1020.61 1020.65 1020.69 1020.81 1020.89 1020.93 1020.93 1021.01 1020.93 1021.05 1021.17 1021.25 1021.17 1021.21 1021.45 1021.57 1021.73 1021.77 1022.01 1022.09 1022.25 1022.45 1022.57 1022.73 1022.81 1023.01 1023.13 1023.21 1023.33 1023.49 1023.65 1023.85 1024.17
1018.09 1018.01 1017.89 1018.09 1018.29 1018.53 1018.65 1018.89 1019.05 1019.21 1019.29 1019.37 1019.45 1019.57 1019.61 1019.69 1019.81 1019.93 1020.05 1020.21 1020.29 1020.25 1020.37 1020.49 1020.45 1020.49 1020.53 1020.61 1020.61 1020.61 1020.69 1020.73 1020.77 1020.81 1020.89 1020.89 1020.93 1020.97 1020.97 1021.01 1021.13 1021.25 1021.21 1021.29 1021.41 1021.53 1021.65 1021.77 1021.85 1021.93 1022.05 1022.25 1022.53 1022.69 1022.89 1023.09 1023.21 1023.25 1023.37 1023.49 1023.81 1023.89 1023.85
1018.49 1018.29 1018.25 1018.33 1018.41 1018.61 1018.81 1019.01 1019.17 1019.33 1019.41 1019.41 1019.57 1019.61 1019.69 1019.69 1019.77 1019.93 1020.05 1020.09 1020.21 1020.37 1020.45 1020.49 1020.57 1020.53 1020.53 1020.57 1020.65 1020.69 1020.73 1020.73 1020.81 1020.89 1020.89 1020.93 1021.01 1021.01 1021.01 1020.97 1021.05 1021.17 1021.21 1021.25 1021.25 1021.45 1021.57 1021.65 1021.85 1021.85 1022.21 1022.29 1022.49 1022.61 1022.85 1023.05 1023.17 1023.17 1023.29 1023.49 1023.49 1023.61 1023.93
1018.69 1018.61 1018.61 1018.69 1018.69 1018.81 1018.97 1019.09 1019.21 1019.33 1019.41 1019.45 1019.49 1019.73 1019.77 1019.81 1019.89 1019.93 1020.09 1020.13 1020.17 1020.33 1020.45 1020.49 1020.53 1020.57 1020.61 1020.73 1020.81 1020.81 1020.85 1020.85 1020.89 1020.93 1020.97 1021.01 1021.09 1021.13 1021.13 1021.09 1021.09 1021.17 1021.25 1021.25 1021.29 1021.29 1021.37 1021.45 1021.61 1021.81 1022.13 1022.33 1022.41 1022.57 1022.77 1023.01 1023.05 1023.17 1023.33 1023.45 1023.53 1023.81 1023.69
1018.73 1018.57 1018.73 1018.85 1018.89 1018.81 1019.05 1019.21 1019.25 1019.41 1019.45 1019.45 1019.49 1019.65 1019.73 1019.85 1019.93 1020.09 1020.09 1020.09 1020.25 1020.37 1020.41 1020.49 1020.49 1020.45 1020.57 1020.61 1020.85 1020.93 1021.05 1021.05 1021.13 1021.13 1021.09 1021.13 1021.17 1021.25 1021.25 1021.25 1021.25 1021.25 1021.29 1021.29 1021.29 1021.37 1021.41 1021.53 1021.49 1021.49 1021.77 1022.21 1022.37 1022.57 1022.73 1022.89 1023.09 1023.17 1023.29 1023.37 1023.37 1023.45 1023.53
1018.93 1019.05 1019.17 1019.17 1018.97 1018.89 1019.01 1019.33 1019.49 1019.57 1019.61 1019.65 1019.61 1019.73 1019.81 1019.73 1019.81 1020.01 1020.25 1020.21 1020.17 1020.33 1020.41 1020.41 1020.37 1020.49 1020.45 1020.53 1020.69 1020.85 1020.93 1021.05 1021.17 1021.21 1021.21 1021.21 1021.17 1021.13 1021.17 1021.25 1021.33 1021.33 1021.45 1021.49 1021.53 1021.57 1021.57 1021.57 1021.61 1021.69 1021.77 1021.85 1022.01 1022.17 1022.57 1022.85 1022.81 1023.05 1023.01 1023.01 1023.33 1023.45 1023.21
1019.45 1019.81 1019.69 1019.57 1019.61 1019.65 1019.61 1019.61 1019.73 1019.89 1019.97 1019.97 1020.01 1019.89 1019.89 1020.01 1019.97 1020.05 1020.13 1020.33 1020.45 1020.45 1020.41 1020.37 1020.49 1020.57 1020.61 1020.57 1020.57 1020.61 1020.73 1020.85 1021.05 1021.13 1021.17 1021.21 1021.21 1021.25 1021.21 1021.21 1021.21 1021.29 1021.33 1021.41 1021.53 1021.65 1021.73 1021.73 1021.73 1021.73 1021.85 1022.01 1022.05 1022.17 1022.17 1022.25 1022.53 1023.05 1023.09 1022.93 1023.13 1022.97 1023.09
1020.17 1020.21 1020.29 1020.29 1020.25 1020.17 1020.21 1020.21 1020.37 1020.49 1020.57 1020.53 1020.21 1020.21 1020.33 1020.25 1020.25 1020.25 1020.25 1020.25 1020.33 1020.49 1020.61 1020.69 1020.81 1020.81 1020.81 1020.81 1020.81 1020.81 1020.77 1020.77 1020.85 1020.97 1021.09 1021.13 1021.13 1021.13 1021.13 1021.17 1021.13 1021.17 1021.21 1021.29 1021.49 1021.69 1021.85 1021.97 1022.25 1022.33 1022.29 1022.33 1022.37 1022.37 1022.37 1022.49 1022.53 1022.37 1022.61 1022.77 1022.73 1022.93 1022.93
1020.77 1020.85 1020.85 1020.81 1020.73 1020.69 1020.77 1021.05 1021.21 1021.33 1021.25 1021.01 1020.85 1020.81 1020.77 1020.69 1020.65 1020.57 1020.53 1020.45 1020.41 1020.45 1020.53 1020.61 1020.73 1020.77 1020.81 1020.89 1021.09 1021.29 1021.09 1020.97 1020.89 1020.89 1020.97 1021.01 1021.01 1020.97 1020.97 1021.01 1021.05 1021.05 1021.09 1021.17 1021.21 1021.33 1021.57 1021.81 1021.93 1021.93 1022.01 1022.21 1022.41 1022.57 1022.65 1022.57 1022.53 1022.65 1022.61 1022.45 1022.57 1022.53 1022.77
1021.53 1021.69 1021.73 1021.65 1021.45 1021.37 1021.41 1021.41 1021.41 1021.61 1021.57 1021.53 1021.41 1021.37 1021.37 1021.21 1021.21 1021.09 1020.97 1020.89 1020.81 1020.73 1020.65 1020.69 1020.65 1020.65 1020.65 1020.73 1020.89 1021.25 1021.29 1021.33 1021.21 1021.09 1020.93 1020.85 1020.81 1020.81 1020.81 1020.81 1020.81 1020.73 1020.85 1020.97 1020.97 1021.09 1021.41 1021.69 1021.77 1021.77 1021.93 1021.93 1022.05 1022.41 1022.65 1022.85 1022.97 1023.09 1023.05 1022.93 1022.61 1022.37 1022.41
1022.13 1022.17 1022.33 1022.37 1022.21 1021.97 1021.85 1021.77 1021.73 1021.77 1021.73 1021.77 1021.81 1021.69 1021.57 1021.53 1021.41 1021.29 1021.21 1021.13 1021.05 1020.97 1020.97 1021.09 1021.17 1021.13 1021.09 1020.93 1020.97 1021.01 1021.05 1021.09 1021.05 1020.97 1020.89 1020.85 1020.77 1020.69 1020.73 1020.89 1020.89 1020.77 1020.69 1020.69 1020.73 1020.97 1021.21 1021.41 1021.45 1021.61 1021.81 1021.93 1022.13 1022.29 1022.45 1022.85 1023.01 1023.13 1023.29 1023.29 1023.17 1022.85 1022.53
1022.45 1022.61 1022.65 1022.65 1022.69 1022.45 1022.21 1022.05 1022.01 1021.97 1021.81 1021.97 1021.97 1021.97 1022.05 1022.05 1022.01 1021.81 1021.57 1021.41 1021.29 1021.13 1021.01 1021.01 1021.21 1021.37 1021.45 1021.49 1021.33 1021.13 1021.13 1021.05 1020.97 1020.81 1020.65 1020.57 1020.57 1020.57 1020.65 1020.73 1020.81 1020.81 1020.77 1020.73 1020.85 1021.01 1021.13 1021.37 1021.49 1021.49 1021.61 1021.81 1022.13 1022.13 1022.13 1022.73 1022.89 1022.73 1023.17 1023.25 1023.21 1023.09 1023.01
1022.89 1022.93 1022.85 1022.93 1022.93 1022.85 1022.73 1022.53 1022.41 1022.37 1022.33 1022.29 1022.21 1022.29 1022.33 1022.17 1022.17 1022.17 1022.05 1021.93 1021.85 1021.65 1021.45 1021.33 1021.41 1021.41 1021.49 1021.61 1021.77 1021.53 1021.21 1021.05 1020.81 1020.69 1020.49 1020.41 1020.45 1020.49 1020.45 1020.37 1020.45 1020.61 1020.73 1020.77 1020.89 1021.05 1021.13 1021.29 1021.29 1021.29 1021.49 1021.81 1022.13 1022.21 1022.29 1022.85 1023.09 1023.01 1023.05 1023.09 1023.29 1023.33 1023.33
1023.01 1022.97 1023.13 1023.33 1023.45 1023.45 1023.29 1023.13 1023.05 1022.85 1022.73 1022.69 1022.65 1022.61 1022.53 1022.57 1022.61 1022.61 1022.65 1022.57 1022.29 1022.13 1022.05 1021.85 1021.69 1021.69 1021.65 1021.77 1021.77 1021.69 1021.57 1021.29 1021.01 1020.65 1020.45 1020.33 1020.33 1020.41 1020.37 1020.37 1020.33 1020.33 1020.33 1020.45 1020.65 1020.73 1020.89 1021.01 1020.93 1020.97 1021.13 1021.61 1021.77 1021.81 1022.01 1022.57 1022.49 1022.57 1022.93 1023.01 1023.41 1023.41 1023.41
1023.53 1023.49 1023.45 1023.49 1023.53 1023.69 1023.73 1023.53 1023.49 1023.33 1023.13 1023.09 1023.05 1022.97 1022.93 1022.93 1022.93 1022.93 1022.97 1022.81 1022.73 1022.61 1022.37 1022.17 1022.05 1021.93 1021.85 1021.89 1022.01 1022.01 1021.89 1021.69 1021.37 1020.89 1020.61 1020.33 1019.97 1019.89 1020.09 1020.17 1020.17 1020.17 1020.25 1020.33 1020.37 1020.37 1020.45 1020.69 1020.69 1020.73 1021.29 1021.37 1021.45 1021.13 1021.93 1022.37 1022.45 1022.21 1022.45 1022.57 1023.17 1023.53 1023.73
1024.17 1024.13 1024.09 1024.05 1023.97 1023.93 1023.97 1024.05 1023.97 1023.81 1023.69 1023.45 1023.33 1023.25 1023.29 1023.29 1023.25 1023.17 1023.13 1023.09 1023.01 1022.93 1022.85 1022.61 1022.25 1022.13 1022.01 1021.89 1021.89 1022.01 1021.97 1021.93 1021.65 1021.37 1021.01 1020.73 1020.49 1020.17 1019.85 1019.85 1019.89 1019.89 1020.01 1020.05 1020.13 1020.17 1020.25 1020.33 1020.49 1020.69 1020.77 1020.69 1020.57 1020.73 1021.77 1022.09 1022.53 1022.53 1022.61 1022.89 1023.29 1023.73 1024.01
1024.33 1024.33 1024.33 1024.33 1024.33 1024.33 1024.37 1024.37 1024.33 1024.33 1024.17 1024.01 1023.85 1023.81 1023.77 1023.77 1023.69 1023.61 1023.49 1023.41 1023.33 1023.25 1023.13 1023.05 1022.81 1022.45 1022.21 1022.01 1021.85 1021.85 1021.89 1021.73 1021.65 1021.37 1021.01 1020.73 1020.53 1020.37 1020.13 1019.85 1019.65 1019.49 1019.57 1019.77 1019.89 1019.97 1020.01 1020.13 1020.33 1020.89 1020.85 1020.81 1021.09 1021.21 1021.25 1021.65 1022.29 1022.69 1022.89 1023.29 1023.61 1023.77 1023.85
1024.33 1024.33 1024.37 1024.37 1024.41 1024.41 1024.49 1024.45 1024.49 1024.49 1024.41 1024.29 1024.17 1024.09 1024.01 1023.97 1023.93 1023.85 1023.73 1023.61 1023.53 1023.45 1023.33 1023.13 1022.97 1022.73 1022.37 1022.13 1021.93 1021.77 1021.77 1021.73 1021.53 1021.49 1021.17 1020.73 1020.33 1020.09 1019.89 1019.85 1019.65 1019.49 1019.53 1019.53 1019.65 1019.73 1019.85 1020.05 1020.45 1020.65 1020.37 1020.61 1020.73 1020.85 1021.41 1021.93 1022.25 1022.45 1022.81 1023.25 1023.45 1023.53 1023.81
1024.45 1024.45 1024.45 1024.41 1024.41 1024.49 1024.53 1024.57 1024.53 1024.53 1024.49 1024.41 1024.29 1024.13 1024.05 1023.97 1023.93 1023.85 1023.81 1023.73 1023.57 1023.41 1023.25 1023.13 1022.85 1022.69 1022.49 1022.25 1021.93 1021.69 1021.49 1021.49 1021.49 1021.25 1021.01 1020.65 1020.29 1020.05 1019.77 1019.57 1019.49 1019.41 1019.49 1019.49 1019.53 1019.57 1019.69 1019.97 1020.09 1020.01 1020.05 1020.21 1020.65 1021.05 1021.45 1021.85 1022.17 1022.33 1022.69 1023.05 1023.25 1023.53 1023.77
Wind_Speed
7 6 5 4 1 2 3 2 1 1 0 0 1 2 3 3 3 2 2 3 3 3 4 4 4 4 4 3 3 3 4 5 6 7 5 5 6 2 2 3 4 4 3 4 4 7 6 6 2 4 4 5 6 4 3 3 3 3 3 3 4 4 4
4 4 3 3 3 3 4 2 2 1 1 1 0 1 1 2 3 3 3 3 3 3 4 4 3 3 5 5 4 4 4 4 4 4 6 6 4 5 4 3 5 4 5 4 4 4 5 5 1 2 3 3 5 4 4 3 3 3 3 3 3 3 3
4 4 4 4 3 3 4 2 1 1 1 1 1 1 1 1 2 2 3 4 3 4 3 5 4 4 3 4 5 5 3 4 2 5 5 5 4 4 3 5 4 3 5 3 3 5 5 3 7 5 4 7 5 2 3 4 3 3 3 4 4 3 3
5 6 5 4 3 3 4 2 2 2 1 2 2 1 2 2 3 3 3 3 3 3 4 5 6 6 5 5 4 3 4 5 4 3 3 3 4 4 3 6 7 8 8 6 6 4 5 3 5 4 3 2 4 5 3 3 3 3 4 4 3 2 2
7 7 8 7 6 5 4 4 2 4 3 3 2 2 2 1 2 3 3 3 3 4 4 4 4 5 5 5 5 5 4 3 3 4 4 4 4 4 4 4 5 4 4 6 6 6 7 6 8 7 6 3 4 3 1 2 3 4 3 2 2 1 1
6 7 7 7 5 6 5 4 4 5 3 5 3 3 1 1 2 4 3 4 3 2 3 3 3 3 4 5 5 5 4 5 6 6 6 6 6 6 6 2 4 3 3 4 6 5 4 6 8 8 2 2 4 3 0 1 1 2 2 2 1 1 1
6 6 6 7 5 6 6 6 5 5 5 4 4 3 2 1 2 2 3 3 2 3 3 3 3 3 4 5 5 5 5 4 4 5 4 4 4 3 4 5 3 3 3 5 6 6 7 7 6 9 5 4 3 4 0 1 0 2 1 1 0 0 1
6 5 5 6 6 6 4 5 4 3 5 3 5 2 1 3 2 3 3 3 3 3 3 3 4 3 3 3 3 3 2 3 3 4 4 5 5 4 4 5 5 3 4 5 6 6 7 8 9 8 9 9 3 2 1 1 0 1 2 0 1 0 1
4 4 5 4 4 6 5 6 5 3 4 4 3 3 1 2 3 3 3 3 3 3 2 3 3 3 3 5 3 3 3 2 5 4 4 4 5 5 4 3 4 4 4 5 5 7 7 7 8 7 8 9 10 4 1 1 0 1 1 1 1 2 3
6 6 6 4 5 3 4 4 5 3 3 3 3 2 3 2 3 3 3 3 3 3 3 3 3 3 3 3 4 3 3 2 3 4 4 5 4 4 4 5 6 6 6 4 4 5 6 5 6 7 8 11 8 9 4 3 3 2 2 2 2 3 4
5 5 5 5 4 5 3 4 4 5 3 3 3 2 3 4 3 3 4 3 2 3 3 3 3 3 4 5 4 3 2 3 5 3 2 4 4 4 3 3 2 4 4 6 6 6 6 7 6 6 4 4 8 10 6 7 6 3 3 2 2 2 3
5 5 4 4 4 5 5 4 4 4 3 3 4 4 4 4 4 3 4 3 3 3 3 3 3 3 4 5 3 4 3 4 6 5 3 3 3 4 4 3 2 3 4 5 5 5 5 7 6 6 4 5 1 4 9 5 5 4 3 6 5 3 4
6 6 6 7 6 5 5 5 4 4 4 3 3 3 4 4 4 4 3 4 3 3 3 2 3 4 4 4 4 5 3 4 6 5 4 3 3 3 4 5 3 4 5 6 5 5 6 4 6 6 6 6 3 3 4 6 6 7 4 5 5 4 4
7 6 6 6 7 6 5 4 3 4 4 3 3 4 3 3 3 4 4 3 4 4 4 3 2 3 4 4 3 4 4 4 6 4 5 4 2 3 4 5 4 4 4 6 6 6 5 5 4 5 5 6 5 4 6 4 5 3 1 2 3 5 2
6 6 7 6 7 6 5 4 4 4 4 2 2 4 3 2 3 4 4 3 3 3 3 3 2 3 4 4 3 3 4 4 4 4 4 4 4 3 4 6 4 4 4 6 6 6 6 6 6 6 5 7 6 6 4 4 3 4 6 1 3 1 1
6 6 7 6 6 5 4 4 4 5 4 3 1 1 3 3 3 3 3 3 3 2 3 3 1 3 3 4 4 3 3 4 4 4 4 4 4 4 4 5 4 4 3 5 4 4 4 5 5 7 8 6 7 7 5 4 5 3 6 5 2 4 3
7 6 7 5 6 4 4 4 3 4 4 3 3 1 1 2 3 3 3 2 1 2 2 2 2 2 4 4 4 4 2 3 3 4 4 4 4 4 5 5 4 4 4 5 4 4 3 4 5 5 6 5 6 8 6 4 5 6 4 6 4 6 4
3 6 5 4 4 4 4 4 3 4 3 3 2 2 1 1 2 2 3 3 2 2 3 2 2 2 1 2 4 4 3 2 2 2 3 4 4 4 4 5 4 4 5 6 4 5 5 5 5 6 6 5 6 6 4 4 4 4 6 7 5 3 2
3 4 6 5 5 4 4 4 3 2 3 3 2 2 2 1 1 2 2 2 2 3 2 3 3 4 3 2 2 3 3 2 2 3 3 3 4 3 4 4 4 4 5 6 5 3 3 5 4 4 5 4 4 3 4 3 3 4 6 7 6 4 2
4 5 6 5 4 3 3 3 3 3 2 3 4 3 3 3 2 2 2 2 3 3 3 3 3 3 3 3 3 3 2 2 2 2 3 4 4 3 3 4 4 3 4 4 5 5 4 4 4 4 5 5 4 5 4 4 4 4 5 5 3 3 4
1 1 3 3 3 3 2 2 2 2 2 3 3 3 4 5 4 3 3 4 3 1 2 2 1 1 2 3 3 3 3 3 3 3 3 3 3 3 4 4 4 4 4 5 6 5 5 5 3 4 2 4 5 5 5 4 4 5 5 5 6 6 3
2 3 3 2 2 2 2 2 2 1 1 1 1 2 3 3 3 3 2 3 2 2 3 3 3 3 2 1 2 4 4 4 4 4 3 3 3 2 3 3 3 4 4 6 7 7 8 7 6 5 3 3 4 5 4 4 5 5 5 5 5 1 3
3 5 4 2 2 4 3 1 2 0 0 1 2 1 3 3 3 2 4 4 2 2 3 3 4 7 6 4 4 3 3 2 3 3 3 3 4 3 4 3 3 4 6 7 8 8 8 8 7 7 8 6 6 5 5 6 6 6 6 6 7 6 5
7 6 5 5 4 4 5 3 2 1 2 1 1 1 2 3 2 3 3 4 5 4 4 4 8 8 9 9 5 4 4 4 3 3 3 4 5 5 4 4 4 4 4 4 4 7 7 8 8 7 9 10 9 9 7 6 6 5 6 6 4 4 6
8 7 7 7 7 7 7 6 6 5 4 5 4 3 5 3 2 1 2 1 3 4 4 6 6 7 8 9 8 6 5 5 5 4 4 4 5 4 5 5 4 3 3 4 3 3 5 7 8 8 7 9 8 7 5 7 6 4 4 5 4 6 5
9 9 8 8 7 8 9 9 9 9 8 5 4 6 4 4 4 3 3 1 2 3 4 5 7 8 8 9 9 6 4 4 5 5 5 5 5 5 6 6 6 4 5 4 1 1 1 1 5 6 5 1 3 3 3 4 3 5 6 5 6 6 7
11 9 8 8 8 9 9 8 8 7 6 7 7 6 6 6 5 4 3 1 1 1 1 4 5 8 9 9 8 5 4 4 4 5 5 6 6 6 7 7 7 7 5 4 4 4 4 3 2 1 0 1 2 4 4 2 3 2 6 6 6 7 6
11 10 9 7 7 8 7 6 7 5 6 6 7 7 6 6 6 5 5 5 5 5 4 4 5 6 7 8 8 6 4 4 4 4 5 5 6 7 7 7 7 8 7 7 7 7 6 5 4 4 2 1 1 1 2 5 6 5 3 3 5 7 6
11 11 11 10 9 8 8 8 8 5 5 6 5 5 6 6 7 7 6 5 4 4 4 4 6 8 10 10 6 3 4 5 6 7 6 6 6 7 6 5 6 7 7 8 9 12 9 7 6 4 3 3 2 1 1 3 2 0 3 4 5 6 3
11 11 10 10 10 9 9 9 7 6 7 7 7 7 6 5 5 6 7 7 7 7 6 8 8 6 6 7 5 3 3 4 5 7 8 7 6 6 6 5 6 6 6 6 7 11 12 11 5 5 6 7 5 5 6 2 3 8 5 4 5 3 6
10 9 10 10 9 9 8 6 7 6 7 7 7 7 5 7 7 7 7 7 7 7 7 10 14 13 12 9 4 5 4 4 5 5 6 6 4 5 6 10 9 6 6 5 6 10 11 9 5 7 7 7 6 6 5 1 1 4 7 10 9 9 9
9 9 9 8 7 9 9 7 6 6 6 6 6 6 7 7 7 7 7 6 9 8 7 9 13 15 14 13 7 5 5 4 4 6 7 7 5 6 5 7 10 9 8 8 11 11 13 12 9 8 9 8 8 9 7 6 5 4 4 6 3 4 5
8 8 8 7 6 6 5 6 8 7 7 6 6 6 6 6 7 6 6 6 7 7 8 8 9 14 14 13 9 4 4 4 6 7 7 8 8 7 6 6 7 12 13 12 14 15 14 14 10 8 7 8 8 11 6 6 6 8 7 7 5 3 4
6 6 5 5 4 5 6 6 7 7 7 7 6 7 6 6 6 6 6 5 6 6 6 8 10 14 14 14 12 8 3 4 5 6 7 7 7 8 7 6 6 9 12 14 15 15 15 16 14 8 10 10 12 6 10 7 5 6 8 6 6 5 5
5 5 5 5 6 6 5 5 5 5 5 5 5 5 4 4 5 6 5 4 4 5 6 7 7 12 14 15 14 10 5 4 5 7 8 8 7 7 8 8 7 10 13 13 13 14 15 15 15 5 8 7 8 13 12 7 7 5 5 6 6 6 6
5 4 4 4 4 4 3 4 3 3 4 4 4 4 4 4 4 4 5 5 4 4 5 5 8 8 13 14 14 13 9 6 8 6 8 9 9 9 7 7 9 12 12 13 13 13 12 13 9 8 12 13 14 14 10 7 8 7 7 6 6 6 6
4 4 4 4 4 4 3 2 2 2 2 2 3 3 4 4 3 4 5 5 5 6 6 6 7 10 9 12 14 14 12 10 8 6 7 8 7 8 9 8 9 12 12 13 14 13 13 12 10 14 14 14 13 11 8 9 8 7 7 7 7 7 6
Wind_Direction
160 168 165 164 141 138 126 131 119 129 59 61 129 136 151 153 167 174 155 147 139 132 137 152 163 163 142 125 153 154 145 158 160 151 161 173 152 187 30 77 77 79 100 85 111 148 140 134 87 58 55 52 67 42 53 85 83 95 95 64 70 64 50
147 138 136 128 131 122 119 108 133 143 95 89 107 157 156 163 171 175 166 157 146 145 133 130 138 155 155 149 147 147 161 159 166 154 145 175 151 167 120 64 82 82 78 75 99 88 134 123 122 136 107 33 70 39 25 34 53 62 73 84 82 70 59
121 109 121 129 123 119 123 120 117 111 108 93 86 133 140 159 173 173 179 176 161 158 144 137 140 148 153 159 171 167 152 143 131 153 169 170 171 159 150 150 118 105 91 78 68 106 65 69 151 161 152 140 121 334 25 25 32 34 41 46 59 53 50
145 137 133 131 122 116 128 131 128 110 85 120 112 58 97 114 131 162 184 185 159 158 149 146 154 165 174 171 160 137 156 157 151 138 125 151 152 150 144 150 154 159 165 164 172 162 142 127 97 100 84 75 136 107 2 24 38 41 45 34 38 40 53
150 152 157 161 162 151 144 136 122 96 89 86 76 64 47 51 89 92 121 148 159 145 158 167 164 164 164 152 149 159 165 160 136 142 150 151 160 164 165 159 166 152 126 143 164 152 142 153 139 133 130 119 58 50 106 55 43 50 32 33 18 21 7
157 156 158 157 163 144 139 129 129 124 118 91 94 107 168 168 126 108 115 138 144 149 147 149 159 148 146 152 158 164 159 170 175 160 164 177 168 168 182 160 145 134 137 142 134 131 105 126 127 121 90 89 128 109 129 81 54 8 66 44 359 360 355
159 156 157 151 156 143 147 148 150 148 140 143 144 144 182 118 73 102 120 112 122 143 152 147 137 139 139 145 151 159 180 180 155 164 159 160 164 159 138 140 151 142 148 149 140 127 134 123 134 132 126 48 82 129 21 46 30 79 339 35 65 12 341
151 146 147 147 145 143 149 138 144 137 132 156 138 160 128 102 92 84 98 107 110 118 115 109 108 110 113 112 114 126 109 120 131 129 141 154 156 150 154 157 154 145 144 148 142 154 152 156 148 150 130 118 61 61 77 20 11 81 213 298 247 208 275
137 128 121 127 140 143 150 147 147 149 139 133 122 122 136 109 104 84 75 99 106 97 90 100 104 109 117 115 110 114 115 120 130 133 156 154 160 165 163 143 142 170 164 162 164 157 162 159 149 148 137 138 139 155 41 99 343 302 157 133 296 230 218
140 143 141 136 130 123 133 136 131 133 122 122 129 121 111 73 90 98 88 91 96 110 101 91 95 95 90 92 102 98 90 76 107 135 144 141 154 153 149 169 179 166 176 171 160 143 138 145 156 151 155 155 155 133 144 169 230 186 246 178 164 249 196
140 125 122 124 125 117 107 110 109 112 128 130 120 115 104 98 85 86 102 84 79 90 104 102 105 104 99 87 95 88 103 105 96 72 71 116 128 127 120 101 124 146 153 162 170 155 154 154 149 159 147 135 149 151 161 163 217 205 194 231 186 206 188
117 114 112 120 126 124 126 121 121 126 111 109 115 113 102 95 92 85 106 111 98 101 97 111 110 100 106 102 89 96 84 107 103 91 58 92 93 97 100 96 81 93 126 146 148 153 153 151 157 141 136 137 189 154 154 137 136 245 167 193 238 223 195
128 130 137 133 128 133 138 134 132 122 135 111 110 115 116 114 110 106 96 112 105 98 102 96 111 115 98 100 111 99 96 110 100 103 85 59 81 108 126 106 101 118 123 128 137 150 159 157 147 148 152 148 126 121 135 142 150 195 213 195 214 240 205
128 129 124 127 127 132 128 126 124 131 110 118 129 119 119 116 108 110 112 116 126 126 117 101 90 107 103 96 79 106 95 100 105 91 105 89 85 111 98 100 92 89 117 127 139 137 142 144 136 144 143 139 142 153 145 125 130 140 192 217 206 218 190
124 123 121 125 128 131 131 130 135 115 126 134 120 128 110 94 94 103 110 108 109 115 114 116 125 117 114 100 83 84 106 102 101 97 96 101 77 81 98 104 99 91 104 125 139 146 151 145 152 150 170 161 165 177 184 111 141 137 191 239 250 305 129
122 123 121 130 128 130 130 128 131 131 131 130 74 109 133 106 96 93 91 102 110 112 118 116 110 120 121 125 114 81 101 121 127 125 115 120 115 109 93 102 114 115 113 102 109 128 132 143 156 167 178 175 169 178 192 160 125 145 171 217 208 191 185
117 121 126 134 130 130 131 136 131 126 129 119 123 69 63 95 100 92 94 94 108 125 107 102 99 121 142 137 126 127 116 115 130 141 139 138 132 120 130 115 129 120 116 112 126 123 134 140 152 160 167 181 170 174 176 162 156 141 174 167 234 194 201
60 107 108 116 123 130 139 138 133 137 120 110 109 109 92 75 95 108 123 141 146 169 163 153 132 126 144 143 141 142 140 128 140 151 154 149 147 138 142 141 160 141 127 122 144 146 159 155 160 151 162 169 173 170 153 157 151 130 145 181 202 236 182
79 116 130 134 137 146 143 140 137 129 136 122 112 151 155 156 155 187 151 182 188 193 174 178 171 176 175 156 138 140 145 152 166 170 175 170 157 163 153 158 166 157 141 139 167 165 155 149 139 145 150 162 153 136 141 133 127 143 165 184 173 199 257
158 158 142 139 132 142 145 140 133 142 164 138 143 167 187 189 207 194 189 170 221 196 180 187 177 171 169 167 164 156 162 174 190 203 201 192 184 188 179 165 164 166 150 150 151 166 156 147 153 166 168 160 153 145 149 164 154 157 172 175 207 204 203
130 89 96 127 140 140 135 106 96 121 135 153 157 174 186 200 208 182 207 194 219 229 157 181 195 186 171 171 167 186 187 192 202 227 229 226 207 203 204 195 176 176 172 177 168 172 157 158 154 175 191 148 149 151 166 166 162 164 172 188 193 205 207
36 77 69 77 107 104 100 109 109 101 140 219 221 170 199 186 181 196 216 219 230 221 175 206 202 181 163 161 177 184 202 201 201 213 234 251 264 266 259 241 218 190 191 195 194 176 180 163 154 169 193 161 159 163 167 171 176 170 184 185 210 182 165
61 56 59 65 85 81 50 57 101 104 232 251 263 159 158 148 144 207 210 211 215 227 229 222 224 205 179 170 182 185 190 204 207 213 220 248 275 282 273 277 276 248 215 206 205 202 196 187 183 166 171 168 166 162 170 175 178 185 173 186 203 182 195
57 60 65 50 41 65 72 37 44 58 61 51 34 52 119 133 148 167 231 217 197 214 230 231 229 216 210 186 171 176 180 205 200 200 208 214 234 246 261 268 272 278 262 248 239 231 218 213 208 191 168 173 171 165 165 177 196 177 180 195 184 182 194
57 37 44 47 48 43 38 44 44 33 22 24 15 48 62 67 75 101 171 199 236 240 235 245 249 231 232 223 205 196 196 194 197 204 205 214 229 234 243 251 257 255 250 233 222 210 229 237 241 236 195 186 191 194 180 171 176 194 200 183 188 207 180
60 59 51 52 52 58 57 50 38 24 12 356 32 35 13 30 44 70 118 156 245 262 269 297 305 287 258 241 238 237 222 219 208 214 209 212 214 220 224 232 247 247 241 237 205 148 173 348 5 354 336 206 160 162 218 269 252 197 173 184 193 214 208
50 44 41 44 51 55 55 52 46 31 12 21 37 29 17 16 4 7 6 58 175 209 249 277 266 265 267 264 256 250 270 250 236 230 224 219 221 219 214 212 222 235 230 207 188 170 152 129 134 133 70 12 353 357 2 358 336 273 198 193 189 214 222
47 38 30 28 42 55 57 54 52 36 36 32 29 30 20 14 12 7 357 345 344 331 301 287 266 256 253 255 252 209 244 270 284 272 251 233 227 229 226 219 212 218 214 208 207 183 158 157 155 161 139 162 121 47 4 3 1 357 335 280 228 223 213
49 43 34 25 25 37 40 41 38 26 36 31 27 28 22 23 13 1 356 358 356 326 305 321 321 314 310 300 291 229 215 223 236 248 257 255 246 237 236 228 228 226 216 215 213 184 169 165 174 155 182 206 170 193 126 167 161 77 277 280 285 274 230
45 42 36 30 21 19 25 24 27 24 33 26 25 24 19 12 2 4 360 1 359 338 332 331 333 307 283 291 303 268 246 235 238 242 244 243 239 238 229 220 221 229 225 224 202 181 177 162 167 187 210 219 209 196 224 264 75 72 44 24 13 39 105
49 44 42 33 17 12 9 14 21 18 32 18 16 6 3 8 10 13 11 5 356 347 335 338 345 345 339 325 292 281 266 238 243 241 252 257 254 247 232 219 209 208 211 224 221 204 191 172 187 193 190 202 210 220 238 214 72 60 95 82 68 72 73
46 47 48 37 28 16 4 3 353 7 20 21 11 1 9 16 10 14 12 4 359 6 349 346 353 356 359 360 346 311 306 287 275 272 267 263 242 233 252 242 224 213 204 202 208 220 212 197 202 193 194 191 201 215 207 169 157 120 99 101 85 88 62
39 41 38 32 28 27 4 6 4 4 10 18 14 14 15 17 12 3 358 5 3 1 353 346 348 350 351 359 11 343 303 293 271 267 266 265 272 262 240 245 242 233 224 211 206 214 217 211 205 195 167 192 197 222 178 163 179 159 159 142 122 81 83
46 42 42 40 37 34 24 15 6 14 11 6 18 19 18 9 4 352 352 351 352 352 351 342 336 341 342 342 349 8 330 284 276 274 274 272 265 268 269 256 250 240 229 226 222 219 218 217 220 196 184 198 208 173 143 168 165 151 138 127 117 108 96
67 63 52 46 40 35 24 23 24 14 10 15 15 12 7 8 0 346 341 342 346 337 339 341 331 331 333 333 332 341 345 300 274 279 276 268 266 262 256 259 252 244 237 230 223 221 219 219 219 198 205 215 138 150 173 162 148 135 108 115 122 127 128
48 50 51 62 68 50 34 28 19 18 17 10 11 4 3 358 358 347 338 335 334 329 330 329 330 325 324 324 324 325 321 311 292 276 261 266 265 264 261 258 258 254 237 231 228 224 219 211 197 196 196 179 177 170 151 138 144 148 144 146 143 145 145
44 37 38 38 46 47 31 24 16 15 1 6 1 356 345 349 346 346 336 322 322 326 323 327 320 319 316 318 321 320 320 315 300 272 268 262 270 266 269 263 257 257 242 232 230 227 221 201 201 208 204 194 172 154 145 151 164 157 148 148 144 144 152